Weather History for Inverness, FL

Change the Weather History Date:

Monday, December 9, 2013

  Actual Average (KOCF) Record (KOCF)
Temperature  
Mean Temperature 70 °F -  
Max Temperature 82 °F 69 °F 84 °F (2013)
Min Temperature 59 °F 47 °F 35 °F (1996)
Cooling Degree Days 6    
Growing Degree Days 20 (Base 50)    
Moisture  
Dew Point 65 °F    
Average Humidity 86    
Maximum Humidity 100    
Minimum Humidity 54    
Precipitation  
Precipitation 0.00 in - - ()
Sea Level Pressure  
Sea Level Pressure 30.16 in    
Wind  
Wind Speed 2 mph (South)    
Max Wind Speed 14 mph    
Max Gust Speed 17 mph    
Visibility 8 miles    
Events Fog    
Averages and records for this station are not official NWS values.
T = Trace of Precipitation, MM = Missing Value Source: NWS Daily Summary

Daily Weather History Graph

Daily Weather History Graph

Search for Another Location

Airport:

Trip Planner

Search our weather history database for the weather conditions in past years. The results will help you decide how hot, cold, wet, or windy it might be!

Date:

Astronomy

Dec. 09, 2013 Rise Set
Actual Time 7:11 AM EST 5:32 PM EST
Civil Twilight 6:45 AM EST 5:58 PM EST
Nautical Twilight 6:15 AM EST 6:27 PM EST
Astronomical Twilight 5:46 AM EST 6:56 PM EST
Moon 12:31 PM EST (12/9) No Moon Set
Length of Visible Light 11h 13m
Length of Day
10h 21m
Waxing Crescent, 51% of the Moon is Illuminated
Dec 9
Waxing Crescent
Dec 17
Full
Dec 25
Last Quarter
Jan 1
New
Jan 7
First Quarter

Hourly Weather History & Observations

Time (EST) Temp. Heat Index Dew Point Humidity Pressure Visibility Wind Dir Wind Speed Gust Speed Precip Events Conditions
12:15 AM 64.4 °F - 64.4 °F 100% 30.19 in 10.0 mi Calm Calm - N/A   Overcast
12:35 AM 64.4 °F - 64.4 °F 100% 30.18 in 10.0 mi Calm Calm - N/A   Overcast
12:55 AM 64.4 °F - 64.4 °F 100% 30.17 in 10.0 mi Calm Calm - N/A   Overcast
1:15 AM 64.4 °F - 64.4 °F 100% 30.17 in 10.0 mi Calm Calm - N/A   Overcast
1:35 AM 64.4 °F - 64.4 °F 100% 30.17 in 10.0 mi Calm Calm - N/A   Mostly Cloudy
1:55 AM 64.4 °F - 62.6 °F 94% 30.17 in 10.0 mi Calm Calm - N/A   Clear
2:15 AM 62.6 °F - 62.6 °F 100% 30.17 in 10.0 mi Calm Calm - N/A   Clear
2:35 AM 62.6 °F - 62.6 °F 100% 30.17 in 10.0 mi Calm Calm - N/A   Scattered Clouds
2:55 AM 64.4 °F - 64.4 °F 100% 30.17 in 7.0 mi Calm Calm - N/A   Scattered Clouds
3:15 AM 62.6 °F - 62.6 °F 100% 30.17 in 7.0 mi Calm Calm - N/A   Clear
3:35 AM 62.6 °F - 62.6 °F 100% 30.17 in 2.0 mi Calm Calm - N/A   Clear
3:55 AM 62.6 °F - 62.6 °F 100% 30.17 in 1.0 mi Calm Calm - N/A   Mostly Cloudy
4:15 AM 62.6 °F - 62.6 °F 100% 30.17 in 0.5 mi Calm Calm - N/A Fog Fog
4:35 AM 62.6 °F - 62.6 °F 100% 30.17 in 0.2 mi Calm Calm - N/A Fog Fog
4:55 AM 60.8 °F - 60.8 °F 100% 30.17 in 0.5 mi Calm Calm - N/A Fog Fog
5:35 AM 62.6 °F - 60.8 °F 94% 30.17 in 7.0 mi Calm Calm - N/A   Overcast
5:55 AM 62.6 °F - 62.6 °F 100% 30.18 in 1.5 mi Calm Calm - N/A   Overcast
6:15 AM 60.8 °F - 60.8 °F 100% 30.18 in 1.2 mi Calm Calm - N/A   Overcast
6:35 AM 60.8 °F - 60.8 °F 100% 30.18 in 0.5 mi Calm Calm - N/A Fog Fog
6:55 AM 59.0 °F - 59.0 °F 100% 30.18 in 2.0 mi Calm Calm - N/A   Overcast
7:15 AM 59.0 °F - 59.0 °F 100% 30.19 in 5.0 mi Calm Calm - N/A   Scattered Clouds
7:35 AM 59.0 °F - 59.0 °F 100% 30.19 in 5.0 mi Calm Calm - N/A   Scattered Clouds
7:55 AM 60.8 °F - 60.8 °F 100% 30.19 in 10.0 mi Calm Calm - N/A   Scattered Clouds
8:15 AM 62.6 °F - 62.6 °F 100% 30.20 in 10.0 mi Calm Calm - N/A   Clear
8:35 AM 64.4 °F - 64.4 °F 100% 30.20 in 10.0 mi Calm Calm - N/A   Clear
8:55 AM 68.0 °F - 68.0 °F 100% 30.20 in 10.0 mi Calm Calm - N/A   Clear
9:15 AM 69.8 °F - 68.0 °F 94% 30.20 in 10.0 mi SSE 4.6 mph - N/A   Clear
9:35 AM 73.4 °F - 68.0 °F 83% 30.20 in 10.0 mi SSE 8.1 mph - N/A   Clear
9:55 AM 75.2 °F - 68.0 °F 78% 30.20 in 10.0 mi SSE 10.4 mph - N/A   Clear
10:15 AM 77.0 °F - 68.0 °F 74% 30.20 in 10.0 mi South 9.2 mph - N/A   Clear
10:35 AM 78.8 °F - 68.0 °F 69% 30.19 in 10.0 mi South 13.8 mph 17.3 mph N/A   Scattered Clouds
10:55 AM 80.6 °F 83.2 °F 68.0 °F 65% 30.19 in 10.0 mi SSE 10.4 mph - N/A   Scattered Clouds
11:15 AM 78.8 °F - 68.0 °F 69% 30.18 in 10.0 mi South 12.7 mph - N/A   Mostly Cloudy
11:35 AM 80.6 °F 83.2 °F 68.0 °F 65% 30.18 in 10.0 mi SSW 9.2 mph - N/A   Mostly Cloudy
11:55 AM 80.6 °F 83.2 °F 68.0 °F 65% 30.17 in 10.0 mi South 10.4 mph - N/A   Scattered Clouds
12:15 PM 80.6 °F 83.2 °F 68.0 °F 65% 30.16 in 10.0 mi South 8.1 mph - N/A   Mostly Cloudy
12:35 PM 80.6 °F 82.7 °F 66.2 °F 61% 30.15 in 10.0 mi South 10.4 mph - N/A   Overcast
12:55 PM 82.4 °F 84.6 °F 66.2 °F 58% 30.14 in 10.0 mi South 9.2 mph - N/A   Mostly Cloudy
1:15 PM 82.4 °F 84.6 °F 66.2 °F 58% 30.13 in 10.0 mi South 9.2 mph - N/A   Scattered Clouds
1:35 PM 82.4 °F 84.6 °F 66.2 °F 58% 30.13 in 10.0 mi SSE 8.1 mph - N/A   Mostly Cloudy
1:55 PM 82.4 °F 84.6 °F 66.2 °F 58% 30.12 in 10.0 mi South 5.8 mph - N/A   Mostly Cloudy
2:15 PM 82.4 °F 84.6 °F 66.2 °F 58% 30.12 in 10.0 mi SW 4.6 mph - N/A   Mostly Cloudy
2:35 PM 82.4 °F 83.9 °F 64.4 °F 54% 30.11 in 10.0 mi SSW 6.9 mph - N/A   Scattered Clouds
2:55 PM 82.4 °F 83.9 °F 64.4 °F 54% 30.11 in 10.0 mi SSW 8.1 mph - N/A   Scattered Clouds
3:15 PM 82.4 °F 83.9 °F 64.4 °F 54% 30.10 in 10.0 mi SSW 10.4 mph - N/A   Scattered Clouds
3:35 PM 80.6 °F 82.3 °F 64.4 °F 58% 30.10 in 10.0 mi SSW 4.6 mph - N/A   Clear
3:55 PM 82.4 °F 83.9 °F 64.4 °F 54% 30.10 in 10.0 mi SSW 6.9 mph - N/A   Scattered Clouds
4:15 PM 80.6 °F 82.3 °F 64.4 °F 58% 30.10 in 10.0 mi SSW 4.6 mph - N/A   Clear
4:35 PM 80.6 °F 82.3 °F 64.4 °F 58% 30.10 in 10.0 mi SSW 4.6 mph - N/A   Clear
4:55 PM 78.8 °F - 68.0 °F 69% 30.11 in 10.0 mi Calm Calm - N/A   Scattered Clouds
5:15 PM 77.0 °F - 68.0 °F 74% 30.11 in 10.0 mi Calm Calm - N/A   Mostly Cloudy
5:35 PM 77.0 °F - 68.0 °F 74% 30.11 in 10.0 mi Calm Calm - N/A   Mostly Cloudy
5:55 PM 75.2 °F - 68.0 °F 78% 30.12 in 10.0 mi Calm Calm - N/A   Scattered Clouds
6:15 PM 71.6 °F - 68.0 °F 88% 30.12 in 10.0 mi Calm Calm - N/A   Mostly Cloudy
6:35 PM 71.6 °F - 68.0 °F 88% 30.13 in 10.0 mi Calm Calm - N/A   Mostly Cloudy
6:55 PM 69.8 °F - 68.0 °F 94% 30.13 in 10.0 mi Calm Calm - N/A   Scattered Clouds
7:15 PM 69.8 °F - 68.0 °F 94% 30.14 in 10.0 mi Calm Calm - N/A   Clear
7:35 PM 68.0 °F - 68.0 °F 100% 30.14 in 10.0 mi Calm Calm - N/A   Clear
7:55 PM 68.0 °F - 68.0 °F 100% 30.14 in 10.0 mi Calm Calm - N/A   Clear
8:15 PM 68.0 °F - 66.2 °F 94% 30.15 in 10.0 mi Calm Calm - N/A   Scattered Clouds
8:35 PM 68.0 °F - 66.2 °F 94% 30.15 in 10.0 mi Calm Calm - N/A   Mostly Cloudy
8:55 PM 66.2 °F - 66.2 °F 100% 30.15 in 7.0 mi Calm Calm - N/A   Mostly Cloudy
9:15 PM 66.2 °F - 66.2 °F 100% 30.15 in 7.0 mi Calm Calm - N/A   Mostly Cloudy
9:35 PM 66.2 °F - 64.4 °F 94% 30.15 in 7.0 mi Calm Calm - N/A   Scattered Clouds
9:55 PM 66.2 °F - 64.4 °F 94% 30.15 in 10.0 mi Calm Calm - N/A   Mostly Cloudy
10:15 PM 64.4 °F - 64.4 °F 100% 30.15 in 4.0 mi Calm Calm - N/A   Mostly Cloudy
10:35 PM 64.4 °F - 64.4 °F 100% 30.15 in 10.0 mi Calm Calm - N/A   Overcast
10:55 PM 64.4 °F - 64.4 °F 100% 30.15 in 10.0 mi Calm Calm - N/A   Overcast
11:15 PM 64.4 °F - 64.4 °F 100% 30.14 in 10.0 mi Calm Calm - N/A   Overcast
11:35 PM 64.4 °F - 64.4 °F 100% 30.14 in 10.0 mi Calm Calm - N/A   Scattered Clouds
11:55 PM 64.4 °F - 64.4 °F 100% 30.14 in 7.0 mi Calm Calm - N/A   Clear